Location: Newark
(46.3567°N, 6.1428°E)
Time: 05:10:09
(UTC+00:00)

First-Move - Pass Details

Date: 19 September 2019
Orbit: 577 x 669 km, 97.6° (Epoch: 15 October)

Event Time Altitude Azimuth Distance (km) Brightness Sun altitude
Rises 17:59:37 0° 195° (SSW) 2,848 ? -4.2°
Reaches altitude 10° 18:02:05 10° 208° (SSW) 1,935 ? -4.7°
Maximum altitude 18:05:36 26° 265° (W) 1,185 ? -5.3°
Drops below altitude 10° 18:09:06 10° 323° (NW) 1,915 ? -5.9°
Sets 18:11:33 0° 336° (NNW) 2,813 ? -6.3°
